SCOUT G-1 DEB, 18525

Orbit data source: Space-Track

SCOUT G-1 DEB, 18525 is space debris in LEO originally from a launch on Fri, 14 Nov 1986 UTC launched from the Air Force Western Test Range (AFWTR). Debris objects in space refer to the collection of defunct objects orbiting the Earth. Examples of debris include non-operational satellites, rocket bodies, and fragments generated from explosions, collisions, or faulty payload assembly.

Loading next visibility...
Identifier
18525, 1986-088D
Orbit
LEO
Country
Flag of USUS
Related business
Manufacturer
Unknown
Mission
Spacecraft
Bus & Motor
Unknown
Mass
2 kg wet, 2 kg dry
Launch date (UTC)
1986-11-14 (39 years ago)
Launch vehicle
Unknown
Launch site
Air Force Western Test Range (AFWTR)
Object type
Payload
Rocket body
Debris
Shape & HBR
Unknown
Radar Cross Section
Small (<0.1 m²)

Expand to show TLE details & history
Last TLE update: 2 days ago

TLE from 2 days ago
0 SCOUT G-1 DEB
1 18525U 86088D   25259.21503789  .00000210  00000-0  17238-3 0  9996
2 18525  89.9291 345.2724 0004703 176.9942 211.9321 13.86237577960306
Epoch: 2025-09-16T05:09Z
TLE epoch observation values (Epoch: 2025-09-16T05:09:39.273Z)
Latitude
28.94175°
Longitude
-87.51078°
Altitude
948.453 km
Speed
7.379 km/s
True Right ascension
23h 01m 14s
True Declination
28° 48' 00"
Sunlit
Object was in full shadow at epoch
Visualization orbit readout
Latitude
Unknown
Longitude
Unknown
Altitude
Unknown
Speed
Unknown
Apparent Right ascension
Unknown
Apparent Declination
Unknown
Sunlit
N/A
Visualization observer readout
Local Sidereal Time
04:31:31
Azimuth
Unknown
Elevation
Unknown
Doppler factor
Unknown
Orbital elements
Apogee altitude
942.284 km
Perigee altitude
935.402 km
Semi-major axis
7,316.98 km
Eccentricity
0.00047
Inclination
89.9291°
RAAN
345.2724°
Arg. of periapsis
176.9942°
True anomaly
211.90361°
Mean anomaly
211.9321°
Eccentric anomaly
211.91785°
Mean motion
3.46773 °/min
Orbital period
103.81 mins
BSTAR
0.00017238
Loading maneuver chart data...
Computing Atmospheric mass density...
Loading historical data...
Loading historical data...
Loading historical data...
Loading historical data...
Loading historical data...
Loading historical data...
Loading historical data...
Other satellites on launch #88 in the year 1986 (1986-11-14 UTC)

Documentation

Showing up to 5 results
|